Preview of NWS' New Version of Forecast
This preview is not operational and should not be used for support decisions.

Regional Weather Roundup (RWR)

Issued by National Weather Service (NWS)

                            
000
ASUS43 KMKX 221810
RWRWI 

WISCONSIN REGIONAL WEATHER ROUNDUP
NATIONAL WEATHER SERVICE MILWAUKEE/SULLIVAN WI
100 PM CDT MON APR 22 2019

NOTE: "FAIR" INDICATES FEW OR NO CLOUDS BELOW 12,000 FEET WITH NO
SIGNIFICANT WEATHER AND/OR OBSTRUCTIONS TO VISIBILITY.

WIZ001-002-006>008-014>016-023>028-221900-
NORTHWEST WISCONSIN
  
CITY           SKY/WX    TMP DP  RH WIND       PRES   REMARKS
SUPERIOR ARPT  LGT RAIN  36  34  91 NE14G26   30.14F WCI  27          
6HR MIN TEMP:  35; 6HR MAX TEMP:  36; 6HR PCP:  0.37;                

ASHLAND        RAIN      37  37 100 NE15      30.13F FOG     WCI  28  
6HR MIN TEMP:  36; 6HR MAX TEMP:  38; 6HR PCP:  0.64;                

HAYWARD        RAIN      42  40  92 NE15G22   30.05R FOG              
6HR MIN TEMP:  40; 6HR MAX TEMP:  42; 6HR PCP:  0.79;                

SIREN          RAIN      42  41  97 NE9       30.07R                  
6HR MIN TEMP:  41; 6HR MAX TEMP:  42; 6HR PCP:  0.59;                

CUMBERLAND     RAIN      41  39  93 NE16      30.01S                  
RICE LAKE      HVY RAIN  44  36  74 NE15      30.02S                  
6HR MIN TEMP:  43; 6HR MAX TEMP:  46; 6HR PCP:  0.21;                

CHETEK         RAIN      46  41  84 NE8       30.00F                  
6HR MIN TEMP:  45; 6HR MAX TEMP:  48;                                

LADYSMITH      CLOUDY    47  43  87 NE14G21   30.03R                  
6HR MIN TEMP:  44; 6HR MAX TEMP:  47; 6HR PCP:  0.02;                

EAU CLAIRE     CLOUDY    50  41  71 N15G24    29.95F                  
6HR MIN TEMP:  48; 6HR MAX TEMP:  55;                                

MENOMONIE      RAIN      46  39  77 N16       29.95F                  
6HR MIN TEMP:  46; 6HR MAX TEMP:  50; 6HR PCP:  0.01;                

NEW RICHMOND   LGT RAIN  43  42  94 N14       29.97R                  
6HR MIN TEMP:  43; 6HR MAX TEMP:  46; 6HR PCP:  0.49;                

OSCEOLA        CLOUDY    45  43  93 N14       30.01F                  
6HR MIN TEMP:  44; 6HR MAX TEMP:  46; 6HR PCP:  0.47;                

$$
 
WIZ003>005-009-010-017-018-221900-
NORTH CENTRAL WISCONSIN
  
CITY           SKY/WX    TMP DP  RH WIND       PRES   REMARKS
MANITOWISH WTR CLOUDY    41  41 100 N10       30.07R                  
6HR MIN TEMP:  38; 6HR MAX TEMP:  41; 6HR PCP:  0.03;                

ARBOR VITAE    CLOUDY    46  42  87 NE12G18   30.03S                  
6HR MIN TEMP:  42; 6HR MAX TEMP:  46;                                

WOODRUFF       CLOUDY    46  42  87 NE12G18   30.03S                  
6HR MIN TEMP:  42; 6HR MAX TEMP:  46;                                

RHINELANDER    PTSUNNY   56  42  59 N7        30.00S                  
6HR MIN TEMP:  43; 6HR MAX TEMP:  57; 6HR PCP: TRACE;                

EAGLE RIVER    CLOUDY    46  42  87 NE13      30.02S                  
6HR MIN TEMP:  40; 6HR MAX TEMP:  47;                                

LAND O LAKES   CLOUDY    44  40  88 NE9       30.07R                  
6HR MIN TEMP:  39; 6HR MAX TEMP:  44; 6HR PCP:  0.03;                

PHILLIPS       CLOUDY    44  42  95 N15       30.03S                  
6HR MIN TEMP:  40; 6HR MAX TEMP:  46; 6HR PCP:  0.01;                

TOMAHAWK       CLOUDY    51  41  69 N5        30.00R                  
6HR MIN TEMP:  41; 6HR MAX TEMP:  55;                                

MEDFORD        RAIN      53  43  70 NE10      29.94F                  
6HR MIN TEMP:  43; 6HR MAX TEMP:  54;                                

MERRILL        LGT RAIN  58  43  58 NE7       29.97S                  
6HR MIN TEMP:  43; 6HR MAX TEMP:  58;                                

$$
 
WIZ029-030-035-036-043>047-221900-
CENTRAL WISCONSIN
  
CITY           SKY/WX    TMP DP  RH WIND       PRES   REMARKS
WAUSAU         CLOUDY    61  39  44 CALM      29.93F                  
MOSINEE        PTSUNNY   63  41  45 CALM      29.96S                  
MARSHFIELD     CLOUDY    57  45  64 E6        29.93F                  
6HR MIN TEMP:  44; 6HR MAX TEMP:  57; 6HR PCP: TRACE;                

STEVENS POINT  CLOUDY    60  42  51 S6        29.95S                  
6HR MIN TEMP:  42; 6HR MAX TEMP:  60;                                

WAUPACA        FAIR      63  43  47 CALM      29.95S                  
6HR MIN TEMP:  45; 6HR MAX TEMP:  63;                                

WAUTOMA        CLOUDY    66  47  50 CALM      29.94R                  
6HR MIN TEMP:  45; 6HR MAX TEMP:  66;                                

WISC RAPIDS    LGT RAIN  61  46  57 CALM      29.94F                  
6HR MIN TEMP:  46; 6HR MAX TEMP:  63; 6HR PCP: TRACE;                

CAMP DOUGLAS   LGT RAIN  68  54  60 CALM      29.89F                  
                                      6HR PCP: TRACE;                

$$
 
WIZ011>013-019>022-031-037>040-048>050-221900-
NORTHEAST WISCONSIN
  
CITY           SKY/WX    TMP DP  RH WIND       PRES   REMARKS
ANTIGO         FAIR      62  42  48 E7        29.95F                  
6HR MIN TEMP:  43; 6HR MAX TEMP:  62;                                

SHAWANO        FAIR      59  44  57 E8        29.96F                  
6HR MIN TEMP:  46; 6HR MAX TEMP:  59;                                

OCONTO         FAIR      51  40  66 E9        29.98F                  
6HR MIN TEMP:  44; 6HR MAX TEMP:  54;                                

STURGEON BAY   FAIR      53  41  63 N9        29.98F                  
6HR MIN TEMP:  43; 6HR MAX TEMP:  55;                                

GREEN BAY      FAIR      54  43  66 NE15      29.96F                  
6HR MIN TEMP:  44; 6HR MAX TEMP:  57;                                

MANITOWOC      FAIR      50  40  68 E8        29.97F                  
6HR MIN TEMP:  46; 6HR MAX TEMP:  54;                                

APPLETON       PTSUNNY   61  37  41 E10       29.93S                  
CLINTONVILLE   FAIR      61  40  45 NE5       29.95R                  
6HR MIN TEMP:  44; 6HR MAX TEMP:  61;                                

OSHKOSH        FAIR      61  46  57 NE8       29.93F                  
6HR MIN TEMP:  45; 6HR MAX TEMP:  61;                                

$$
 
WIZ032>034-041-042-053>061-221900-
SOUTHWEST WISCONSIN
  
CITY           SKY/WX    TMP DP  RH WIND       PRES   REMARKS
LA CROSSE      PTSUNNY   70  55  59 S8        29.88R                  
6HR MIN TEMP:  63; 6HR MAX TEMP:  72; 6HR PCP:  0.01;                

SPARTA         LGT RAIN  60  58  93 CALM      29.91R                  
6HR MIN TEMP:  57; 6HR MAX TEMP:  72; 6HR PCP:  0.06;                

VIROQUA        FAIR      66  58  75 S9        29.91F                  
6HR MIN TEMP:  56; 6HR MAX TEMP:  70; 6HR PCP:  0.04;                

BOSCOBEL       FAIR      71  58  63 CALM      29.90F                  
6HR MIN TEMP:  57; 6HR MAX TEMP:  72; 6HR PCP:  0.09;                

PRAIRIE DU CHI FAIR      70  51  51 S6        29.89S                  
6HR MIN TEMP:  60; 6HR MAX TEMP:  71;                                

PLATTEVILLE    FAIR      73  57  58 S13G20    29.92F                  
6HR MIN TEMP:  58; 6HR MAX TEMP:  73; 6HR PCP:  0.03;                

$$

WIZ056-057-062-063-064-067-068-221900-
SOUTH CENTRAL WISCONSIN
  
CITY           SKY/WX    TMP DP  RH WIND       PRES   REMARKS
REEDSBURG      LGT RAIN  65  55  70 CALM      29.91F                  
6HR MIN TEMP:  60; 6HR MAX TEMP:  74;                                

BARABOO/DELLS  DRIZZLE   66  55  68 CALM      29.92F                  
6HR MIN TEMP:  60; 6HR MAX TEMP:  73;                                

LONE ROCK      FAIR      71  57  61 S10       29.91S                  
6HR MIN TEMP:  57; 6HR MAX TEMP:  72; 6HR PCP:  0.02;                

MINERAL POINT  FAIR      66  66 100 S8        29.92F                  
MADISON        PTSUNNY   72  51  47 SW7       29.91F                  
6HR MIN TEMP:  58; 6HR MAX TEMP:  73;                                

MIDDLETON      CLOUDY    69  54  58 SW6       29.93S                  
6HR MIN TEMP:  60; 6HR MAX TEMP:  74;                                

WATERTOWN      FAIR      74  52  45 S16       29.94S                  
6HR MIN TEMP:  56; 6HR MAX TEMP:  75;                                

MONROE         FAIR      71  53  52 MISG      29.93R                  
6HR MIN TEMP:  56; 6HR MAX TEMP:  73;                                

JANESVILLE     PTSUNNY   79  50  36 SW12G17   29.92F                  
$$
 
WIZ051-052-058>065-066-070>072-221900-
SOUTHEAST WISCONSIN
  
CITY           SKY/WX    TMP DP  RH WIND       PRES   REMARKS
MILWAUKEE      PTSUNNY   68  48  48 SE8       29.94F                  
6HR MIN TEMP:  54; 6HR MAX TEMP:  68;                                

WAUKESHA       SUNNY     70  46  43 S13G20    29.95F                  
MILWAUKEE/TIMM SUNNY     70  45  40 S10       29.95F                  
RACINE         FAIR      60  44  55 SE7       29.96F                  
6HR MIN TEMP:  50; 6HR MAX TEMP:  60;                                

KENOSHA        FAIR      76  52  43 S16       29.95F                  
6HR MIN TEMP:  56; 6HR MAX TEMP:  76;                                

FOND DU LAC    FAIR      63  47  55 N6        29.93F                  
6HR MIN TEMP:  47; 6HR MAX TEMP:  67;                                

SHEBOYGAN      FAIR      61  45  55 S7        29.95F                  
6HR MIN TEMP:  49; 6HR MAX TEMP:  62;                                

WEST BEND      FAIR      72  46  40 S10G17    29.92F                  
JUNEAU         FAIR      71  51  48 S14G21    29.94S                  
6HR MIN TEMP:  55; 6HR MAX TEMP:  72;                                

$$

LSZ147-162-221900-
LAKE SUPERIOR
  
STATION/POSITION TIME  TEMP    WIND        PRES    WAVE
                       AIR SEA DIR/SP/G            HT/PER
                 (UTC) (F)     (DEG/KT/KT) (MB)    (FT/S)
$$
 
LMZ867-665-643>646-221900-
LAKE MICHIGAN
  
STATION/POSITION TIME  TEMP    WIND        PRES    WAVE
                       AIR SEA DIR/SP/G            HT/PER
                 (UTC) (F)     (DEG/KT/KT) (MB)    (FT/S)
NORTHPORT PIER   1740   39      60/  7/ 10 1015.9F
KEWAUNEE LAKESHO 1748   43     140/  5/  9 1014.7S
SHEBOYGAN LAKESH 1800